DELTA 1 DEB, 42081

Orbit data source: Space-Track

DELTA 1 DEB, 42081 is space debris in SSO originally from a launch on Sun, 15 Dec 1968 UTC launched from the Air Force Western Test Range (AFWTR). Debris objects in space refer to the collection of defunct objects orbiting the Earth. Examples of debris include non-operational satellites, rocket bodies, and fragments generated from explosions, collisions, or faulty payload assembly.

Loading next visibility...
Identifier
42081, 1968-114H
Orbit
SSO
Country
Flag of USUS
Related business
Manufacturer
Aerojet
Mission
Spacecraft
Bus & Motor
Unknown
Mass
Unknown
Launch date (UTC)
1968-12-15 (58 years ago)
Launch vehicle
Unknown
Launch site
Air Force Western Test Range (AFWTR)
Object type
Payload
Rocket body
Debris
Shape & HBR
Unknown shape, 0.1 m
Radar Cross Section
Medium (>0.1 m² and <1 m²)

Expand to show TLE details & history
Last TLE update: 2 weeks ago

TLE from 2 weeks ago
0 DELTA 1 DEB
1 42081U 68114H   26158.07893303  .00000146  00000-0  15244-2 0  9999
2 42081 101.6986 105.3327 0117456   6.1005 354.1456 12.31811471501525
Epoch: 2026-06-07T01:53Z
TLE epoch observation values (Epoch: 2026-06-07T01:53:39.813Z)
Latitude
-0.00005°
Longitude
-178.56847°
Altitude
1,451.519 km
Speed
7.178 km/s
True Right ascension
07h 01m 19s
True Declination
0° 00' 00"
Sunlit
Object was in daylight at epoch
Visualization orbit readout
Latitude
Unknown
Longitude
Unknown
Altitude
Unknown
Speed
Unknown
Apparent Right ascension
Unknown
Apparent Declination
Unknown
Sunlit
N/A
Visualization observer readout
Local Sidereal Time
21:57:41
Azimuth
Unknown
Elevation
Unknown
Doppler factor
Unknown
Orbital elements
Apogee altitude
1,632.067 km
Perigee altitude
1,446.082 km
Semi-major axis
7,917.212 km
Eccentricity
0.01175
Inclination
101.6986°
RAAN
105.3327°
Arg. of periapsis
6.1005°
True anomaly
354.00628°
Mean anomaly
354.1456°
Eccentric anomaly
354.07614°
Mean motion
3.08095 °/min
Orbital period
116.85 mins
BSTAR
0.0015244
Loading maneuver chart data...
Computing Atmospheric mass density...
Loading historical data...
Loading historical data...
Loading historical data...
Loading historical data...
Loading historical data...
Loading historical data...
Loading historical data...

Documentation

Showing up to 5 results
|